DateTimeUTC,F1_A11,F1_S11,BsB_S11,BsG_S11,BsR_S11,BbsB_S11,BbsG_S11,BbsR_S11,BaB_A11,BaG_A11,BaR_A11,Tu_S11,T_S11,Uu_S11,U_S11,P_S11,T1_A11
2021-04-10T13:00:00Z,00000200,21000000,,,,,,,-000.07,0000.10,-000.27,18.5,25.3,01.2,00.8,0659.4,31.1
2021-04-10T13:01:00Z,00000200,21000000,,,,,,,0000.03,-000.03,0000.07,18.5,25.3,01.2,00.8,0659.4,31.1
2021-04-10T13:02:00Z,00000200,21000000,,,,,,,0000.15,0000.38,0000.09,18.5,25.3,01.2,00.8,0659.4,31.1
2021-04-10T13:03:00Z,00000200,61000000,,,,,,,0000.02,-000.02,0000.30,18.5,25.3,01.2,00.8,0659.4,31.2
2021-04-10T13:04:00Z,00000200,41000000,0000.09,0000.65,0000.45,-000.03,0000.04,0000.13,0000.35,0000.36,-000.13,18.7,25.2,01.2,00.8,0660.3,31.1
2021-04-10T13:05:00Z,00000200,01000000,0000.38,0000.30,0000.11,0000.05,-000.06,0000.15,-000.17,0000.04,0000.45,18.8,25.2,01.3,00.9,0660.4,31.2
2021-04-10T13:06:00Z,00000200,01000000,0000.39,0000.35,0000.22,0000.16,0000.33,0000.16,-000.11,-000.14,-000.27,18.8,25.2,01.2,00.8,0660.4,31.2
2021-04-10T13:07:00Z,00000200,01000000,0000.38,0000.50,0000.05,-000.04,0000.19,0000.01,0000.25,-000.01,-000.06,18.8,25.2,01.3,00.9,0660.4,31.1
2021-04-10T13:08:00Z,00000200,01000000,-000.10,0000.46,0000.26,-000.15,0000.11,-000.31,0000.18,-000.15,0000.31,18.8,25.3,01.2,00.8,0660.4,31.2
2021-04-10T13:09:00Z,00000200,01000000,0000.14,0000.19,-000.04,-000.23,0000.36,0000.19,0000.23,0000.39,-000.43,18.9,25.3,01.1,00.8,0660.4,31.2
2021-04-10T13:10:00Z,00000200,01000000,0000.75,0000.24,0000.25,-000.05,0000.11,0000.13,-000.21,-000.20,0000.59,18.9,25.3,01.1,00.8,0660.5,31.2
2021-04-10T13:11:00Z,00000200,01000000,0000.27,0000.15,-000.06,0000.09,0000.11,-000.07,-000.10,0000.24,-000.16,18.9,25.3,01.0,00.7,0660.5,31.2
2021-04-10T13:12:00Z,00000200,01000000,0000.25,0000.43,-000.08,-000.22,0000.51,0000.15,0000.95,0000.79,0000.64,18.9,25.3,01.1,00.7,0660.5,31.2
2021-04-10T13:13:00Z,00000200,01000000,0000.47,0000.35,0000.13,-000.45,0000.26,-000.01,0000.17,0000.03,0000.36,19.0,25.3,01.2,00.8,0660.5,31.2
2021-04-10T13:14:00Z,00000200,01000000,0000.63,0000.22,0000.05,-000.04,0000.13,-000.14,0000.38,0000.21,-000.17,19.0,25.3,01.2,00.8,0660.5,31.2
2021-04-10T13:15:00Z,00000200,01000000,-000.17,0000.44,0000.08,0000.12,0000.40,0000.28,0000.32,0000.32,0000.40,19.0,25.4,01.3,00.9,0660.5,31.2
2021-04-10T13:16:00Z,00000200,01000000,0000.22,0000.38,0000.21,0000.30,0000.34,0000.27,0000.46,0000.68,0000.34,19.0,25.4,01.3,00.9,0660.5,31.2
2021-04-10T13:17:00Z,00000200,01000000,0000.76,0000.62,0000.01,-000.09,0000.21,-000.16,0000.06,-000.01,-000.11,19.0,25.4,01.4,00.9,0660.5,31.2
2021-04-10T13:18:00Z,00000200,01000000,0000.59,0000.45,0000.28,-000.38,0000.09,-000.08,0000.65,0001.00,0000.47,19.0,25.4,01.5,01.0,0660.5,31.2
2021-04-10T13:19:00Z,00000200,01000000,0000.39,0000.39,0000.41,-000.17,0000.22,-000.10,0000.67,0000.27,0000.72,19.0,25.4,01.5,01.0,0660.5,31.1
2021-04-10T13:20:00Z,00000200,01000000,0000.39,0000.27,0000.11,0000.32,0000.22,0000.16,0000.01,0000.10,0000.25,19.0,25.4,01.5,01.0,0660.6,31.1
2021-04-10T13:21:00Z,00000200,01000000,0000.42,0000.39,0000.20,-000.19,0000.23,0000.29,0000.37,-000.11,-000.15,19.0,25.4,01.6,01.1,0660.6,31.1
2021-04-10T13:22:00Z,00000200,01000000,0000.84,0000.19,0000.21,0000.21,0000.09,0000.15,-000.03,0000.13,-000.17,19.0,25.4,01.6,01.1,0660.6,31.1
2021-04-10T13:23:00Z,00000200,01000000,0000.64,0000.37,-000.19,0000.21,0000.25,0000.07,-000.39,-000.14,-000.14,19.0,25.4,01.4,00.9,0660.6,31.1
2021-04-10T13:24:00Z,00000200,01000000,0000.63,0000.71,0000.01,-000.36,0000.13,-000.05,-000.24,-000.67,-000.31,19.0,25.4,01.4,00.9,0660.6,31.1
2021-04-10T13:25:00Z,00000200,01000000,0000.69,0000.13,-000.07,-000.02,0000.02,-000.07,0000.13,0000.31,0000.10,19.0,25.4,01.3,00.9,0660.6,31.1
2021-04-10T13:26:00Z,00000200,01000000,0000.20,0000.18,0000.33,-000.15,0000.16,0000.20,0000.33,0000.49,0000.55,19.0,25.4,01.3,00.9,0660.6,31.1
2021-04-10T13:27:00Z,00000200,01000000,0000.24,0000.11,0000.08,-000.01,0000.25,-000.05,0000.46,0000.13,0000.06,19.0,25.5,01.4,01.0,0660.6,31.1
2021-04-10T13:28:00Z,00000200,01000000,0001.03,0000.50,-000.32,-000.19,-000.01,0000.03,0000.17,0000.69,0000.15,19.0,25.5,01.4,01.0,0660.6,31.2
2021-04-10T13:29:00Z,00000200,01000000,-000.24,0000.25,0000.56,0000.25,0000.03,0000.18,0000.40,-000.30,-000.02,19.1,25.5,01.5,01.0,0660.6,31.2
2021-04-10T13:30:00Z,00000200,01000000,0000.39,0000.33,-000.07,-000.05,-000.03,0000.06,-000.09,0000.25,0000.07,19.1,25.5,01.6,01.1,0660.6,31.2
2021-04-10T13:31:00Z,00000200,01000000,0000.66,0000.53,0000.12,-000.18,0000.22,0000.27,0000.18,-000.05,-000.02,19.1,25.5,01.5,01.0,0660.6,31.2
2021-04-10T13:32:00Z,00000200,01000000,0000.30,0000.07,0000.19,-000.02,-000.09,0000.28,0000.18,0000.28,0000.36,19.1,25.5,01.5,01.0,0660.6,31.2
2021-04-10T13:33:00Z,00000200,01000000,0000.26,0000.24,0000.03,-000.52,0000.07,0000.06,0000.55,0000.29,-000.11,19.2,25.5,01.6,01.1,0660.6,31.2
2021-04-10T13:34:00Z,00000200,01000000,-000.24,0000.48,0000.16,-000.23,0000.33,-000.10,0000.31,0000.44,0000.78,19.2,25.6,01.6,01.1,0660.6,31.2
2021-04-10T13:35:00Z,00000200,01000000,-000.13,0000.16,0000.22,-000.24,-000.04,-000.18,0000.33,0000.47,0000.12,19.2,25.6,01.7,01.1,0660.7,31.2
2021-04-10T13:36:00Z,00000200,01000000,0000.64,0000.20,-000.02,0000.25,0000.19,-000.12,0000.04,0000.16,-000.14,19.3,25.6,01.6,01.1,0660.7,31.2
2021-04-10T13:37:00Z,00000200,01000000,0000.55,-000.11,0000.03,-000.25,-000.06,-000.08,-000.28,-000.18,0000.28,19.3,25.6,01.6,01.1,0660.7,31.2
2021-04-10T13:38:00Z,00000200,01000000,0000.50,0000.01,-000.06,0000.07,0000.21,-000.03,0000.22,0000.18,-000.30,19.3,25.6,01.5,01.0,0660.7,31.2
2021-04-10T13:39:00Z,00000200,01000000,0000.01,0000.18,-000.01,0000.28,0000.03,-000.04,0000.70,0000.39,0000.57,19.3,25.7,01.6,01.1,0660.7,31.2
2021-04-10T13:40:00Z,00000200,01000000,0000.55,0000.12,-000.23,-000.02,0000.39,0000.01,0000.50,0000.69,0000.47,19.3,25.7,01.8,01.2,0660.7,31.2
2021-04-10T13:41:00Z,00000200,01000000,-000.20,0000.20,0000.19,0000.24,0000.01,-000.02,-000.26,-000.22,-000.08,19.3,25.7,01.7,01.2,0660.7,31.2
2021-04-10T13:42:00Z,00000200,01000000,0000.41,0000.46,0000.01,0000.03,0000.22,0000.02,0000.46,0000.25,0000.52,19.4,25.7,01.7,01.1,0660.8,31.2
2021-04-10T13:43:00Z,00000200,01000000,-000.11,0000.05,0000.19,0000.24,-000.08,0000.09,0000.01,0000.34,-000.46,19.4,25.7,01.7,01.1,0660.8,31.2
2021-04-10T13:44:00Z,00000200,01000000,0000.09,0000.24,0000.28,-000.04,0000.22,-000.30,-000.30,-000.44,0000.38,19.4,25.7,01.6,01.1,0660.8,31.2
2021-04-10T13:45:00Z,00000200,01000000,0000.18,0000.19,0000.02,0000.02,0000.16,-000.31,0000.14,0000.11,-000.51,19.4,25.8,01.6,01.1,0660.8,31.2
2021-04-10T13:46:00Z,00000200,01000000,0000.43,0000.05,0000.40,0000.09,0000.20,0000.34,-000.37,-000.27,0000.25,19.4,25.8,01.5,01.0,0660.8,31.2
2021-04-10T13:47:00Z,00000200,01000000,0000.71,0000.32,0000.22,-000.36,0000.27,0000.02,0000.25,-000.00,-000.00,19.4,25.8,01.5,01.0,0660.8,31.2
2021-04-10T13:48:00Z,00000200,01000000,0000.84,0000.24,-000.05,0000.12,0000.08,-000.06,-000.18,0000.47,0000.22,19.4,25.8,01.4,01.0,0660.8,31.2
2021-04-10T13:49:00Z,00000200,01000000,0000.15,0000.21,0000.02,-000.45,0000.12,0000.04,0000.60,-000.24,-000.11,19.5,25.8,01.5,01.0,0660.8,31.2
2021-04-10T13:50:00Z,00000200,01000000,0000.30,0000.36,0000.14,-000.46,0000.14,-000.05,-000.26,-000.06,-000.09,19.5,25.8,01.4,00.9,0660.9,31.2
2021-04-10T13:51:00Z,00000200,01000000,-000.44,0000.17,0000.17,0000.01,0000.18,0000.09,0000.10,0000.29,0000.23,19.5,25.8,01.4,01.0,0660.9,31.2
2021-04-10T13:52:00Z,00000200,01000000,0000.22,0000.03,0000.06,0000.03,-000.14,0000.14,0000.18,-000.07,0000.05,19.5,25.8,01.3,00.9,0660.9,31.2
2021-04-10T13:53:00Z,00000200,01000000,0000.27,0000.58,0000.30,-000.10,0000.21,-000.13,0000.68,0000.07,0000.23,19.5,25.9,01.3,00.9,0660.9,31.2
2021-04-10T13:54:00Z,00000200,01000000,0000.68,0000.23,0000.17,-000.09,0000.22,0000.10,0000.11,0000.60,0000.43,19.5,25.9,01.4,00.9,0660.9,31.2
2021-04-10T13:55:00Z,00000200,01000000,0000.86,0000.39,0000.06,-000.00,0000.02,0000.08,0000.54,0000.08,0000.13,19.5,25.9,01.5,01.0,0660.9,31.2
2021-04-10T13:56:00Z,00000200,01000000,-000.14,0000.01,-000.06,-000.09,-000.05,0000.20,0000.17,0000.76,0000.52,19.6,25.9,01.5,01.0,0660.9,31.2
2021-04-10T13:57:00Z,00000200,40000000,,,,,,,-000.06,0000.23,-000.34,19.6,25.9,01.5,01.0,0660.9,31.2
2021-04-10T13:58:00Z,00000200,61000000,,,,,,,-000.02,-000.07,0000.21,19.4,26.0,01.4,00.9,0659.9,31.2
2021-04-10T13:59:00Z,00000200,20000000,,,,,,,0000.14,0000.08,0000.33,19.4,26.0,01.5,01.0,0659.9,31.2
